Change the Weather History Date:

Wednesday, September 18, 2013

  Actual Average Record
Temperature  
Mean Temperature 56 °F -  
Max Temperature 60 °F 65 °F 82 °F (2000)
Min Temperature 53 °F 49 °F 30 °F (2012)
Degree Days  
Heating Degree Days 8    
Growing Degree Days 6 (Base 50)    
Moisture  
Dew Point 53 °F    
Average Humidity 84    
Maximum Humidity 88    
Minimum Humidity 82    
Precipitation  
Precipitation 0.04 in - - ()
Sea Level Pressure  
Sea Level Pressure 29.84 in    
Wind  
Wind Speed 3 mph (ENE)    
Max Wind Speed 8 mph    
Max Gust Speed -    
Visibility 3 miles    
Events Fog , Rain    
Averages and records for this station are not official NWS values.
T = Trace of Precipitation, MM = Missing Value Source: NWS Daily Summary

Daily Weather History Graph

Daily Weather History Graph

Search for Another Location

Airport or City:

Trip Planner

Search our weather history database for the weather conditions in past years. The results will help you decide how hot, cold, wet, or windy it might be!

Date:

Astronomy

Sep. 18, 2013 Rise Set
Actual Time 6:48 AM CDT 7:12 PM CDT
Civil Twilight 6:18 AM CDT 7:42 PM CDT
Nautical Twilight 5:42 AM CDT 8:18 PM CDT
Astronomical Twilight 5:04 AM CDT 8:55 PM CDT
Moon 6:34 PM CDT (9/18) 5:50 AM CDT (9/18)
Length of Visible Light 13h 24m
Length of Day
12h 23m
Waxing Gibbous, 99% of the Moon is Illuminated
Sep 18
Waxing Gibbous
Sep 19
Full
Sep 26
Last Quarter
Oct 4
New
Oct 11
First Quarter

Hourly Weather History & Observations

Time (CDT) Temp. Dew Point Humidity Pressure Visibility Wind Dir Wind Speed Gust Speed Precip Events Conditions
12:13 AM 55.4 °F 50.0 °F 82% 29.96 in 10.0 mi SSW 4.6 mph - N/A   Overcast
12:33 AM 55.4 °F 50.0 °F 82% 29.95 in 10.0 mi South 4.6 mph - N/A   Overcast
12:53 AM 55.4 °F 50.0 °F 82% 29.95 in 10.0 mi South 3.5 mph - N/A   Overcast
1:14 AM 55.4 °F 50.0 °F 82% 29.95 in 10.0 mi Calm Calm - N/A   Overcast
1:33 AM 55.4 °F 51.8 °F 88% 29.94 in 10.0 mi Calm Calm - N/A   Overcast
1:53 AM 55.4 °F 51.8 °F 88% 29.94 in 10.0 mi Calm Calm - N/A   Overcast
2:14 AM 55.4 °F 50.0 °F 82% 29.93 in 10.0 mi Calm Calm - N/A   Overcast
2:33 AM 55.4 °F 51.8 °F 88% 29.92 in 10.0 mi Calm Calm - N/A   Overcast
2:53 AM 55.4 °F 51.8 °F 88% 29.91 in 10.0 mi Calm Calm - N/A   Overcast
3:13 AM 55.4 °F 51.8 °F 88% 29.90 in 10.0 mi Calm Calm - N/A   Overcast
3:33 AM 55.4 °F 51.8 °F 88% 29.90 in 10.0 mi Calm Calm - N/A   Overcast
3:53 AM 55.4 °F 51.8 °F 88% 29.89 in 10.0 mi Calm Calm - N/A   Overcast
4:13 AM 55.4 °F 51.8 °F 88% 29.89 in 5.0 mi Calm Calm - N/A   Drizzle
4:34 AM 55.4 °F 50.0 °F 82% 29.89 in 4.0 mi Calm Calm - N/A   Haze
4:53 AM 55.4 °F 50.0 °F 82% 29.89 in 3.0 mi Calm Calm - N/A   Haze
5:13 AM 55.4 °F 50.0 °F 82% 29.88 in 1.5 mi Calm Calm - N/A   Light Drizzle
5:34 AM 55.4 °F 50.0 °F 82% 29.88 in 1.5 mi Calm Calm - N/A   Light Drizzle
5:53 AM 53.6 °F 50.0 °F 88% 29.88 in 1.2 mi Calm Calm - N/A   Light Drizzle
6:13 AM 53.6 °F 50.0 °F 88% 29.87 in 0.5 mi Calm Calm - 0.01 in Fog Fog
6:34 AM 53.6 °F 50.0 °F 88% 29.87 in 0.8 mi Calm Calm - 0.01 in   Overcast
6:53 AM 53.6 °F 50.0 °F 88% 29.87 in 0.5 mi Calm Calm - 0.01 in Fog Fog
7:13 AM 53.6 °F 50.0 °F 88% 29.87 in 0.5 mi Calm Calm - N/A Fog Fog
7:34 AM 55.4 °F 50.0 °F 82% 29.87 in 0.2 mi NE 3.5 mph - N/A   Haze
7:53 AM 55.4 °F 50.0 °F 82% 29.87 in 0.2 mi Calm Calm - N/A   Haze
8:13 AM 55.4 °F 50.0 °F 82% 29.87 in 0.5 mi Calm Calm - N/A   Haze
8:34 AM 55.4 °F 51.8 °F 88% 29.86 in 0.8 mi Calm Calm - N/A   Haze
8:53 AM 55.4 °F 51.8 °F 88% 29.86 in 0.8 mi Calm Calm - N/A   Haze
9:13 AM 55.4 °F 51.8 °F 88% 29.86 in 1.0 mi East 3.5 mph - N/A   Haze
9:34 AM 55.4 °F 51.8 °F 88% 29.87 in 0.8 mi Calm Calm - N/A   Haze
9:53 AM 57.2 °F 51.8 °F 82% 29.87 in 0.5 mi East 3.5 mph - N/A   Haze
10:13 AM 57.2 °F 51.8 °F 82% 29.87 in 0.8 mi East 3.5 mph - N/A   Haze
10:34 AM 57.2 °F 51.8 °F 82% 29.87 in 1.0 mi East 3.5 mph - N/A   Haze
10:53 AM 57.2 °F 51.8 °F 82% 29.87 in 1.0 mi East 3.5 mph - N/A   Haze
11:13 AM 57.2 °F 51.8 °F 82% 29.86 in 1.0 mi ENE 4.6 mph - N/A   Light Drizzle
11:34 AM 57.2 °F 51.8 °F 82% 29.85 in 1.0 mi ENE 4.6 mph - N/A   Haze
11:53 AM 57.2 °F 53.6 °F 88% 29.83 in 1.2 mi NE 3.5 mph - N/A   Haze
12:13 PM 59.0 °F 53.6 °F 82% 29.83 in 1.5 mi NE 4.6 mph - N/A   Haze
12:34 PM 59.0 °F 53.6 °F 82% 29.82 in 2.5 mi East 3.5 mph - N/A   Haze
12:53 PM 60.8 °F 55.4 °F 82% 29.82 in 2.0 mi East 3.5 mph - N/A   Haze
1:13 PM 60.8 °F 55.4 °F 82% 29.81 in 1.8 mi ENE 3.5 mph - N/A   Haze
1:34 PM 60.8 °F 55.4 °F 82% 29.80 in 1.8 mi ENE 3.5 mph - N/A   Haze
1:53 PM 60.8 °F 55.4 °F 82% 29.80 in 2.0 mi East 4.6 mph - N/A   Haze
2:13 PM 60.8 °F 55.4 °F 82% 29.79 in 2.5 mi East 5.8 mph - N/A   Haze
2:34 PM 60.8 °F 55.4 °F 82% 29.79 in 2.0 mi East 5.8 mph - N/A   Haze
2:53 PM 60.8 °F 55.4 °F 82% 29.79 in 3.0 mi ENE 8.1 mph - N/A   Haze
3:13 PM 59.0 °F 53.6 °F 82% 29.79 in 4.0 mi East 6.9 mph - N/A   Haze
3:34 PM 59.0 °F 53.6 °F 82% 29.79 in 1.5 mi East 5.8 mph - N/A   Light Drizzle
3:53 PM 59.0 °F 53.6 °F 82% 29.79 in 1.5 mi ENE 6.9 mph - N/A   Light Drizzle
4:13 PM 59.0 °F 53.6 °F 82% 29.78 in 1.0 mi East 8.1 mph - N/A   Drizzle
4:33 PM 59.0 °F 53.6 °F 82% 29.79 in 1.0 mi ENE 4.6 mph - N/A   Light Drizzle
4:53 PM 59.0 °F 53.6 °F 82% 29.78 in 1.0 mi ENE 3.5 mph - N/A   Light Drizzle
5:14 PM 59.0 °F 53.6 °F 82% 29.77 in 1.0 mi ENE 4.6 mph - N/A   Light Drizzle
5:33 PM 59.0 °F 55.4 °F 88% 29.78 in 1.0 mi East 4.6 mph - 0.01 in   Light Drizzle
5:53 PM 60.8 °F 55.4 °F 82% 29.77 in 0.8 mi East 5.8 mph - 0.01 in   Drizzle
6:14 PM 60.8 °F 55.4 °F 82% 29.77 in 0.8 mi East 4.6 mph - N/A   Light Drizzle
6:33 PM 60.8 °F 55.4 °F 82% 29.76 in 0.2 mi East 5.8 mph - N/A   Light Drizzle
6:53 PM 60.8 °F 55.4 °F 82% 29.77 in 0.2 mi ENE 3.5 mph - N/A   Light Drizzle
7:13 PM 60.8 °F 55.4 °F 82% 29.77 in 0.8 mi ENE 3.5 mph - N/A   Haze
7:33 PM 60.8 °F 55.4 °F 82% 29.76 in 0.5 mi ENE 4.6 mph - N/A   Haze
7:53 PM 60.8 °F 55.4 °F 82% 29.77 in 0.5 mi ENE 3.5 mph - N/A   Haze
8:13 PM 60.8 °F 55.4 °F 82% 29.77 in 0.8 mi NE 4.6 mph - N/A   Haze
8:33 PM 60.8 °F 55.4 °F 82% 29.77 in 0.8 mi NE 3.5 mph - N/A   Haze
8:54 PM 60.8 °F 55.4 °F 82% 29.78 in 1.2 mi ENE 3.5 mph - 0.01 in   Light Drizzle
9:13 PM 60.8 °F 55.4 °F 82% 29.77 in 1.5 mi Calm Calm - N/A   Haze
9:33 PM 60.8 °F 55.4 °F 82% 29.77 in 1.8 mi ENE 5.8 mph - N/A   Overcast
9:54 PM 60.8 °F 55.4 °F 82% 29.78 in 1.8 mi Calm Calm - N/A   Haze
10:13 PM 60.8 °F 55.4 °F 82% 29.79 in 1.8 mi ENE 3.5 mph - N/A Rain Light Rain
10:33 PM 60.8 °F 55.4 °F 82% 29.79 in 2.0 mi Calm Calm - N/A Rain Light Rain
10:54 PM 60.8 °F 55.4 °F 82% 29.78 in 1.2 mi NE 3.5 mph - N/A   Drizzle
11:13 PM 60.8 °F 55.4 °F 82% 29.78 in 1.2 mi NE 3.5 mph - N/A   Light Drizzle
11:33 PM 60.8 °F 55.4 °F 82% 29.76 in 1.0 mi NE 5.8 mph - N/A   Drizzle
11:54 PM 60.8 °F 55.4 °F 82% 29.76 in 1.5 mi ENE 4.6 mph - 0.01 in   Haze